QPF
0.02 0.02 0.03 0.03 0.03 0.04 0.05 0.05 0.05 0.03 0.02 0.02 0.02 0.01 0.01 0.01 0.01 0.01 0.00 0.00 0.00 0.01 0.01 0.01 0.00 0.01 0.01 0.01 0.01 0.01 0.01 0.01 0.01 0.02 0.03 0.03 0.03 0.03
0.02 0.02 0.03 0.03 0.03 0.04 0.05 0.06 0.06 0.05 0.04 0.02 0.02 0.02 0.01 0.01 0.02 0.01 0.00 0.00 0.00 0.00 0.00 0.00 0.00 0.00 0.01 0.01 0.01 0.01 0.02 0.02 0.02 0.02 0.03 0.03 0.03 0.03
0.02 0.02 0.02 0.02 0.03 0.03 0.04 0.05 0.06 0.06 0.04 0.03 0.02 0.02 0.02 0.01 0.01 0.01 0.00 0.00 0.00 0.00 0.00 0.00 0.00 0.00 0.01 0.01 0.01 0.01 0.01 0.01 0.02 0.02 0.02 0.03 0.03 0.03
0.02 0.02 0.03 0.03 0.03 0.03 0.03 0.04 0.04 0.04 0.04 0.03 0.02 0.02 0.01 0.01 0.01 0.01 0.00 0.00 0.00 0.00 0.00 0.00 0.00 0.00 0.01 0.01 0.01 0.01 0.01 0.01 0.01 0.02 0.02 0.02 0.02 0.02
0.02 0.02 0.03 0.04 0.04 0.04 0.04 0.04 0.04 0.04 0.04 0.03 0.03 0.03 0.03 0.02 0.02 0.02 0.02 0.01 0.01 0.00 0.00 0.00 0.00 0.00 0.01 0.01 0.01 0.01 0.01 0.01 0.01 0.01 0.01 0.02 0.02 0.02
0.02 0.02 0.02 0.03 0.03 0.04 0.04 0.04 0.05 0.05 0.05 0.05 0.05 0.04 0.03 0.03 0.03 0.03 0.02 0.02 0.01 0.01 0.00 0.00 0.00 0.00 0.00 0.00 0.01 0.01 0.01 0.01 0.01 0.01 0.01 0.02 0.02 0.02
0.01 0.01 0.01 0.02 0.02 0.02 0.02 0.03 0.04 0.04 0.04 0.04 0.05 0.04 0.04 0.04 0.04 0.03 0.03 0.02 0.02 0.01 0.01 0.00 0.00 0.00 0.00 0.00 0.01 0.01 0.01 0.01 0.01 0.01 0.01 0.01 0.02 0.02
0.01 0.01 0.01 0.01 0.01 0.01 0.01 0.02 0.02 0.03 0.03 0.03 0.03 0.03 0.03 0.03 0.03 0.03 0.02 0.02 0.02 0.01 0.01 0.00 0.00 0.00 0.00 0.00 0.01 0.01 0.01 0.01 0.01 0.01 0.01 0.01 0.02 0.02
0.00 0.00 0.00 0.01 0.01 0.01 0.01 0.02 0.02 0.02 0.02 0.02 0.02 0.02 0.03 0.03 0.03 0.03 0.02 0.02 0.02 0.01 0.01 0.01 0.01 0.00 0.00 0.01 0.01 0.01 0.01 0.01 0.01 0.01 0.01 0.01 0.01 0.01
0.01 0.01 0.00 0.01 0.01 0.01 0.01 0.02 0.02 0.02 0.02 0.02 0.02 0.02 0.02 0.02 0.02 0.02 0.02 0.02 0.01 0.01 0.01 0.01 0.01 0.00 0.00 0.00 0.00 0.00 0.00 0.01 0.01 0.01 0.01 0.01 0.01 0.01
0.01 0.01 0.01 0.01 0.01 0.01 0.02 0.02 0.02 0.02 0.02 0.02 0.02 0.02 0.02 0.02 0.02 0.02 0.02 0.02 0.02 0.01 0.01 0.01 0.00 0.00 0.00 0.00 0.00 0.00 0.01 0.01 0.01 0.01 0.01 0.01 0.01 0.02
0.01 0.01 0.02 0.01 0.02 0.02 0.02 0.02 0.02 0.01 0.01 0.01 0.01 0.01 0.01 0.01 0.01 0.01 0.02 0.03 0.02 0.01 0.01 0.01 0.01 0.01 0.01 0.00 0.00 0.00 0.01 0.01 0.01 0.01 0.01 0.01 0.01 0.01
0.02 0.02 0.02 0.02 0.02 0.03 0.03 0.02 0.02 0.02 0.01 0.01 0.01 0.01 0.01 0.01 0.01 0.01 0.01 0.02 0.03 0.02 0.01 0.01 0.02 0.01 0.02 0.01 0.00 0.00 0.00 0.00 0.00 0.00 0.00 0.00 0.01 0.01
0.02 0.02 0.02 0.03 0.03 0.03 0.03 0.02 0.03 0.02 0.02 0.02 0.02 0.02 0.02 0.02 0.01 0.01 0.01 0.01 0.01 0.02 0.01 0.02 0.03 0.02 0.03 0.02 0.01 0.00 0.00 0.00 0.00 0.00 0.00 0.00 0.00 0.01
0.02 0.03 0.03 0.03 0.03 0.03 0.03 0.03 0.03 0.03 0.03 0.02 0.02 0.02 0.02 0.01 0.01 0.01 0.01 0.01 0.01 0.01 0.01 0.01 0.02 0.02 0.03 0.03 0.02 0.01 0.01 0.00 0.00 0.00 0.00 0.01 0.01 0.01
0.03 0.03 0.03 0.03 0.03 0.04 0.04 0.03 0.03 0.03 0.03 0.03 0.02 0.02 0.01 0.01 0.01 0.01 0.01 0.01 0.01 0.01 0.00 0.01 0.02 0.03 0.03 0.02 0.02 0.01 0.01 0.01 0.01 0.00 0.01 0.01 0.01 0.01
0.02 0.02 0.02 0.03 0.03 0.03 0.04 0.03 0.03 0.04 0.03 0.03 0.03 0.02 0.02 0.01 0.01 0.01 0.01 0.01 0.02 0.01 0.01 0.01 0.02 0.02 0.02 0.02 0.02 0.01 0.01 0.01 0.01 0.01 0.01 0.01 0.01 0.01
0.03 0.03 0.03 0.03 0.03 0.03 0.03 0.04 0.04 0.04 0.03 0.03 0.03 0.02 0.02 0.01 0.01 0.01 0.01 0.02 0.02 0.02 0.02 0.01 0.01 0.01 0.01 0.01 0.01 0.01 0.01 0.01 0.01 0.01 0.01 0.02 0.01 0.01
0.02 0.02 0.03 0.03 0.03 0.03 0.04 0.04 0.04 0.04 0.03 0.03 0.02 0.02 0.02 0.01 0.01 0.01 0.02 0.02 0.02 0.01 0.01 0.01 0.01 0.02 0.02 0.01 0.01 0.01 0.02 0.02 0.02 0.01 0.02 0.02 0.02 0.02
0.01 0.02 0.02 0.02 0.03 0.03 0.03 0.03 0.03 0.03 0.03 0.02 0.02 0.02 0.02 0.02 0.02 0.02 0.02 0.02 0.01 0.01 0.01 0.01 0.01 0.02 0.03 0.03 0.02 0.01 0.01 0.02 0.03 0.03 0.02 0.02 0.02 0.02
0.01 0.02 0.02 0.02 0.03 0.03 0.03 0.03 0.03 0.03 0.02 0.02 0.02 0.01 0.01 0.02 0.02 0.01 0.01 0.01 0.01 0.01 0.01 0.01 0.01 0.01 0.02 0.02 0.02 0.01 0.01 0.01 0.02 0.04 0.04 0.03 0.02 0.02
0.01 0.02 0.02 0.02 0.02 0.02 0.02 0.02 0.02 0.02 0.02 0.01 0.01 0.01 0.01 0.01 0.01 0.01 0.01 0.01 0.01 0.01 0.01 0.01 0.00 0.01 0.01 0.02 0.02 0.01 0.01 0.01 0.01 0.01 0.02 0.04 0.06 0.06
0.02 0.02 0.02 0.02 0.02 0.02 0.02 0.02 0.02 0.02 0.01 0.01 0.01 0.01 0.01 0.01 0.01 0.01 0.01 0.01 0.01 0.01 0.01 0.01 0.01 0.01 0.01 0.01 0.01 0.01 0.01 0.01 0.01 0.01 0.01 0.02 0.03 0.04
MSLP
1015.60 1015.92 1016.24 1016.55 1016.86 1017.18 1017.54 1017.95 1018.41 1018.93 1019.48 1020.06 1020.63 1021.17 1021.64 1022.05 1022.36 1022.58 1022.71 1022.76 1022.74 1022.66 1022.52 1022.33 1022.10 1021.82 1021.50 1021.15 1020.78 1020.41 1020.03 1019.66 1019.29 1018.93 1018.56 1018.17 1017.76 1017.32
1014.99 1015.34 1015.68 1016.00 1016.33 1016.69 1017.09 1017.55 1018.08 1018.67 1019.31 1019.97 1020.62 1021.21 1021.73 1022.14 1022.44 1022.62 1022.71 1022.70 1022.63 1022.50 1022.32 1022.11 1021.87 1021.60 1021.30 1020.98 1020.63 1020.27 1019.90 1019.52 1019.15 1018.76 1018.35 1017.93 1017.47 1016.99
1014.56 1014.96 1015.33 1015.69 1016.05 1016.44 1016.88 1017.39 1017.97 1018.62 1019.31 1020.03 1020.72 1021.35 1021.87 1022.27 1022.53 1022.67 1022.68 1022.61 1022.46 1022.27 1022.05 1021.81 1021.56 1021.30 1021.02 1020.72 1020.40 1020.07 1019.71 1019.34 1018.96 1018.55 1018.12 1017.66 1017.17 1016.65
1014.36 1014.83 1015.26 1015.66 1016.06 1016.47 1016.94 1017.47 1018.08 1018.76 1019.49 1020.23 1020.93 1021.56 1022.07 1022.44 1022.65 1022.72 1022.66 1022.51 1022.29 1022.03 1021.76 1021.49 1021.23 1020.97 1020.71 1020.43 1020.14 1019.82 1019.48 1019.12 1018.72 1018.30 1017.86 1017.37 1016.86 1016.31
1014.45 1014.98 1015.47 1015.91 1016.34 1016.78 1017.25 1017.79 1018.40 1019.08 1019.80 1020.53 1021.23 1021.83 1022.31 1022.64 1022.80 1022.80 1022.68 1022.45 1022.17 1021.85 1021.54 1021.23 1020.95 1020.68 1020.42 1020.15 1019.87 1019.56 1019.22 1018.85 1018.45 1018.01 1017.55 1017.05 1016.52 1015.96
1014.81 1015.40 1015.93 1016.41 1016.85 1017.29 1017.76 1018.28 1018.86 1019.51 1020.21 1020.91 1021.57 1022.15 1022.59 1022.87 1022.99 1022.94 1022.77 1022.49 1022.16 1021.80 1021.44 1021.10 1020.79 1020.50 1020.22 1019.94 1019.63 1019.30 1018.94 1018.55 1018.13 1017.67 1017.19 1016.68 1016.15 1015.59
1015.42 1016.04 1016.59 1017.08 1017.53 1017.95 1018.39 1018.87 1019.41 1020.02 1020.66 1021.32 1021.94 1022.47 1022.88 1023.13 1023.22 1023.16 1022.96 1022.66 1022.30 1021.91 1021.52 1021.16 1020.81 1020.48 1020.15 1019.82 1019.47 1019.09 1018.67 1018.23 1017.77 1017.28 1016.78 1016.26 1015.73 1015.18
1016.20 1016.82 1017.38 1017.86 1018.28 1018.68 1019.07 1019.50 1019.99 1020.53 1021.12 1021.72 1022.30 1022.80 1023.18 1023.42 1023.51 1023.45 1023.25 1022.96 1022.60 1022.20 1021.80 1021.40 1021.01 1020.62 1020.23 1019.82 1019.39 1018.92 1018.43 1017.91 1017.39 1016.86 1016.32 1015.79 1015.26 1014.72
1017.07 1017.67 1018.20 1018.66 1019.05 1019.40 1019.75 1020.13 1020.55 1021.03 1021.56 1022.11 1022.64 1023.11 1023.48 1023.73 1023.83 1023.79 1023.63 1023.36 1023.02 1022.64 1022.23 1021.80 1021.37 1020.92 1020.44 1019.93 1019.39 1018.81 1018.21 1017.60 1017.00 1016.40 1015.83 1015.28 1014.75 1014.22
1017.94 1018.51 1019.00 1019.43 1019.79 1020.10 1020.41 1020.74 1021.10 1021.53 1022.00 1022.49 1022.98 1023.42 1023.78 1024.04 1024.16 1024.16 1024.04 1023.82 1023.51 1023.15 1022.74 1022.30 1021.82 1021.29 1020.73 1020.11 1019.45 1018.75 1018.03 1017.31 1016.62 1015.95 1015.33 1014.75 1014.20 1013.68
1018.75 1019.28 1019.75 1020.15 1020.49 1020.78 1021.06 1021.34 1021.66 1022.03 1022.45 1022.89 1023.33 1023.74 1024.08 1024.34 1024.48 1024.51 1024.43 1024.25 1023.98 1023.65 1023.25 1022.79 1022.27 1021.68 1021.03 1020.31 1019.53 1018.72 1017.88 1017.05 1016.26 1015.52 1014.84 1014.22 1013.65 1013.11
1019.48 1019.99 1020.45 1020.84 1021.17 1021.46 1021.72 1021.98 1022.27 1022.59 1022.95 1023.33 1023.71 1024.07 1024.38 1024.61 1024.75 1024.79 1024.74 1024.59 1024.36 1024.05 1023.66 1023.20 1022.65 1022.02 1021.29 1020.49 1019.61 1018.69 1017.75 1016.82 1015.94 1015.12 1014.37 1013.71 1013.10 1012.54
1020.14 1020.65 1021.12 1021.52 1021.87 1022.16 1022.43 1022.68 1022.94 1023.22 1023.52 1023.83 1024.15 1024.43 1024.68 1024.86 1024.97 1025.00 1024.94 1024.81 1024.59 1024.30 1023.92 1023.46 1022.90 1022.23 1021.46 1020.60 1019.65 1018.65 1017.62 1016.61 1015.65 1014.75 1013.94 1013.22 1012.57 1011.97
1020.77 1021.30 1021.79 1022.23 1022.61 1022.93 1023.20 1023.45 1023.69 1023.93 1024.17 1024.40 1024.62 1024.82 1024.98 1025.08 1025.13 1025.11 1025.03 1024.89 1024.67 1024.38 1024.01 1023.55 1022.98 1022.30 1021.51 1020.61 1019.62 1018.56 1017.47 1016.40 1015.36 1014.40 1013.52 1012.73 1012.02 1011.38
1021.41 1021.97 1022.50 1022.98 1023.39 1023.74 1024.04 1024.29 1024.51 1024.70 1024.87 1025.02 1025.15 1025.24 1025.29 1025.30 1025.26 1025.17 1025.04 1024.85 1024.62 1024.32 1023.94 1023.48 1022.92 1022.23 1021.43 1020.51 1019.50 1018.40 1017.28 1016.15 1015.05 1014.02 1013.07 1012.22 1011.45 1010.74
1022.11 1022.70 1023.25 1023.76 1024.21 1024.58 1024.90 1025.15 1025.34 1025.50 1025.60 1025.67 1025.69 1025.68 1025.62 1025.51 1025.38 1025.20 1025.00 1024.76 1024.49 1024.16 1023.77 1023.30 1022.73 1022.05 1021.24 1020.31 1019.28 1018.16 1017.00 1015.83 1014.68 1013.58 1012.56 1011.64 1010.79 1010.03
1022.86 1023.46 1024.03 1024.56 1025.02 1025.40 1025.72 1025.96 1026.14 1026.25 1026.31 1026.30 1026.23 1026.12 1025.96 1025.75 1025.52 1025.26 1024.97 1024.67 1024.34 1023.97 1023.55 1023.06 1022.47 1021.78 1020.96 1020.02 1018.97 1017.83 1016.63 1015.41 1014.21 1013.05 1011.96 1010.96 1010.05 1009.22
1023.67 1024.25 1024.81 1025.31 1025.76 1026.14 1026.45 1026.68 1026.83 1026.92 1026.92 1026.86 1026.74 1026.55 1026.31 1026.02 1025.70 1025.36 1025.00 1024.63 1024.23 1023.81 1023.34 1022.81 1022.19 1021.47 1020.62 1019.66 1018.58 1017.41 1016.17 1014.91 1013.64 1012.41 1011.25 1010.18 1009.20 1008.31
1024.49 1025.02 1025.53 1025.99 1026.40 1026.75 1027.03 1027.24 1027.38 1027.44 1027.43 1027.34 1027.17 1026.94 1026.65 1026.31 1025.93 1025.52 1025.10 1024.65 1024.19 1023.71 1023.18 1022.59 1021.92 1021.15 1020.27 1019.26 1018.15 1016.93 1015.65 1014.33 1013.00 1011.71 1010.47 1009.33 1008.28 1007.34
1025.28 1025.74 1026.17 1026.56 1026.91 1027.21 1027.45 1027.64 1027.76 1027.81 1027.79 1027.69 1027.52 1027.27 1026.96 1026.59 1026.17 1025.72 1025.24 1024.74 1024.21 1023.66 1023.06 1022.41 1021.67 1020.85 1019.91 1018.86 1017.70 1016.44 1015.11 1013.74 1012.35 1010.99 1009.69 1008.47 1007.37 1006.37
1026.01 1026.36 1026.70 1027.00 1027.27 1027.51 1027.71 1027.87 1027.98 1028.03 1028.01 1027.93 1027.76 1027.53 1027.21 1026.83 1026.40 1025.91 1025.39 1024.84 1024.25 1023.63 1022.97 1022.25 1021.46 1020.58 1019.59 1018.49 1017.29 1015.99 1014.62 1013.20 1011.76 1010.34 1008.98 1007.71 1006.54 1005.50
1026.63 1026.88 1027.11 1027.32 1027.52 1027.69 1027.85 1027.97 1028.07 1028.12 1028.11 1028.05 1027.90 1027.68 1027.38 1027.00 1026.56 1026.05 1025.50 1024.91 1024.27 1023.60 1022.88 1022.10 1021.26 1020.34 1019.31 1018.19 1016.96 1015.64 1014.24 1012.79 1011.31 1009.85 1008.44 1007.11 1005.89 1004.80
1027.14 1027.29 1027.43 1027.55 1027.67 1027.78 1027.89 1027.99 1028.07 1028.12 1028.12 1028.07 1027.94 1027.73 1027.44 1027.07 1026.62 1026.10 1025.52 1024.90 1024.22 1023.51 1022.76 1021.95 1021.08 1020.14 1019.10 1017.98 1016.75 1015.43 1014.02 1012.56 1011.07 1009.58 1008.13 1006.74 1005.47 1004.33
Thickness
5579 5575 5572 5569 5565 5562 5557 5552 5545 5542 5543 5541 5537 5535 5530 5527 5523 5520 5516 5513 5511 5508 5505 5501 5499 5496 5493 5490 5487 5485 5482 5480 5479 5477 5477 5477 5477 5477
5570 5566 5563 5559 5556 5552 5548 5544 5539 5534 5532 5531 5526 5523 5519 5516 5511 5508 5505 5502 5500 5497 5494 5491 5488 5485 5482 5479 5476 5474 5472 5470 5469 5467 5466 5466 5465 5465
5559 5556 5553 5549 5545 5542 5538 5534 5529 5525 5521 5520 5515 5512 5507 5504 5501 5497 5494 5492 5489 5486 5483 5480 5477 5474 5471 5469 5466 5464 5462 5460 5459 5458 5457 5456 5455 5455
5549 5546 5542 5539 5535 5531 5527 5523 5519 5515 5510 5507 5505 5500 5497 5493 5490 5487 5484 5481 5478 5476 5472 5469 5466 5464 5461 5459 5456 5455 5453 5451 5449 5448 5447 5446 5445 5444
5539 5536 5532 5528 5524 5520 5517 5512 5508 5504 5499 5495 5493 5489 5485 5482 5479 5476 5473 5469 5466 5464 5462 5458 5455 5453 5451 5449 5447 5445 5443 5442 5440 5439 5437 5436 5436 5435
5528 5525 5521 5517 5514 5510 5506 5502 5497 5493 5488 5484 5481 5478 5475 5471 5466 5463 5462 5459 5456 5453 5451 5447 5445 5442 5440 5439 5438 5436 5434 5432 5431 5429 5428 5428 5427 5426
5516 5513 5510 5507 5504 5500 5496 5491 5487 5482 5477 5473 5470 5467 5464 5460 5455 5452 5449 5448 5446 5443 5441 5438 5436 5433 5431 5430 5429 5427 5425 5423 5421 5420 5420 5419 5418 5417
5504 5501 5498 5495 5492 5489 5485 5481 5477 5472 5467 5463 5460 5456 5453 5449 5445 5441 5437 5436 5436 5434 5429 5429 5425 5424 5422 5421 5419 5418 5416 5414 5412 5411 5410 5409 5409 5408
5493 5489 5487 5483 5479 5476 5474 5470 5466 5461 5458 5454 5450 5446 5442 5439 5435 5432 5428 5424 5423 5421 5418 5419 5417 5414 5412 5411 5410 5408 5407 5405 5403 5402 5401 5401 5400 5399
5482 5478 5475 5472 5468 5465 5462 5459 5454 5450 5447 5443 5440 5437 5433 5429 5425 5422 5418 5415 5413 5410 5406 5406 5407 5405 5404 5402 5400 5399 5397 5395 5394 5393 5392 5392 5391 5391
5470 5467 5464 5460 5458 5455 5451 5447 5443 5439 5436 5432 5429 5426 5422 5418 5414 5411 5407 5404 5403 5401 5396 5393 5395 5394 5395 5394 5392 5390 5388 5386 5384 5383 5383 5382 5382 5382
5458 5455 5452 5449 5446 5443 5439 5435 5431 5428 5425 5422 5418 5414 5410 5407 5403 5399 5396 5392 5390 5388 5386 5382 5381 5379 5383 5385 5383 5380 5378 5377 5375 5374 5373 5373 5373 5373
5445 5442 5439 5437 5435 5431 5428 5424 5421 5418 5414 5410 5406 5402 5399 5396 5393 5389 5385 5381 5378 5375 5374 5370 5369 5366 5364 5369 5373 5371 5369 5367 5366 5365 5364 5364 5363 5363
5433 5430 5427 5426 5423 5420 5417 5413 5410 5406 5402 5398 5394 5391 5388 5385 5382 5379 5376 5372 5369 5365 5363 5359 5357 5356 5355 5357 5360 5362 5360 5358 5357 5357 5357 5356 5356 5355
5420 5418 5415 5413 5411 5408 5405 5402 5398 5394 5390 5386 5383 5380 5377 5375 5373 5370 5367 5364 5361 5357 5354 5351 5349 5347 5346 5346 5348 5350 5350 5351 5350 5349 5349 5348 5348 5348
5407 5405 5403 5401 5399 5397 5394 5390 5386 5383 5379 5376 5373 5370 5368 5366 5363 5361 5358 5355 5353 5350 5347 5344 5342 5340 5339 5339 5338 5340 5339 5339 5341 5340 5340 5341 5340 5340
5395 5393 5391 5389 5387 5384 5381 5378 5375 5372 5369 5366 5363 5361 5358 5356 5354 5351 5348 5346 5343 5342 5340 5338 5336 5334 5333 5332 5333 5333 5332 5332 5331 5331 5332 5334 5335 5334
5385 5382 5379 5377 5375 5373 5370 5368 5365 5362 5359 5356 5354 5351 5349 5347 5344 5342 5340 5337 5334 5333 5331 5330 5329 5329 5328 5328 5327 5326 5325 5324 5324 5323 5323 5324 5329 5329
5373 5370 5368 5366 5364 5362 5359 5357 5354 5352 5349 5347 5344 5342 5339 5338 5336 5334 5331 5329 5326 5325 5323 5321 5319 5318 5318 5319 5321 5318 5316 5316 5316 5316 5315 5315 5319 5323
5361 5359 5357 5355 5353 5351 5349 5347 5344 5342 5340 5338 5335 5333 5331 5329 5328 5325 5323 5320 5318 5316 5315 5313 5310 5309 5307 5308 5310 5311 5309 5307 5307 5309 5310 5311 5313 5316
5350 5348 5346 5345 5343 5341 5339 5337 5335 5333 5331 5329 5327 5325 5323 5321 5319 5317 5314 5312 5310 5308 5307 5306 5304 5303 5301 5300 5301 5304 5304 5302 5300 5299 5301 5304 5308 5311
5340 5339 5337 5335 5334 5332 5330 5328 5327 5325 5323 5321 5319 5317 5315 5313 5311 5309 5306 5304 5302 5300 5299 5299 5298 5296 5295 5293 5294 5296 5298 5299 5298 5297 5296 5296 5297 5302
5331 5330 5328 5327 5326 5324 5322 5321 5320 5318 5316 5314 5312 5310 5308 5306 5304 5301 5299 5297 5295 5294 5293 5293 5292 5290 5288 5287 5287 5288 5290 5292 5294 5295 5296 5296 5295 5297